{"data":{"norad_id":57330,"intl_designator":"2023-099C","name":"STARLINK-6212","alt_names":[],"object_type":"PAYLOAD","status":"ACTIVE","operator":null,"country":"US","launch_date":"2023-07-16","launch_site_code":"AFETR","launch_vehicle":null,"mission":null,"orbit_class":"UNKNOWN","rcs_meters":null,"size_class":null,"mass_kg":null,"dimensions":null,"purposes":["comms"],"wikipedia_slug":null,"has_3d_model":false,"image_url":null,"decayed_at":null,"tle_current":{"epoch":"2026-09-19T23:41:46.097376Z","epoch_age_seconds":168624,"freshness":"FRESH","line1":"1 57330U 23099C   26262.98733909  .00000417  00000+0  24688-4 0  9990","line2":"2 57330  43.0032 234.9577 0001598 275.7792  84.2878 15.27576627175795","mean_motion":15.27576627,"eccentricity":0.0001598,"inclination_deg":43.0032,"raan_deg":234.9577,"arg_perigee_deg":275.7792,"mean_anomaly_deg":84.2878,"bstar":2.4688e-5,"rev_number":17579,"period_min":94.266956861471,"perigee_km":481.96277688154,"apogee_km":484.15561518579,"semimajor_km":6861.1961960337,"source":"CELESTRAK","updated_at":"2026-09-21T09:00:33.596132Z"}}}